Weather Roundup
Issued by NWS Springfield, MO

Home | Current Version | Previous Version | Text Only | Print | Product List | Glossary On
Versions: 1 2 3 4 5 6 7 8 9 10 11 12 13 14 15 16 17 18 19 20 21 22 23 24 25 26 27 28 29 30 31 32 33 34 35 36 37 38 39 40 41 42 43 44 45 46 47 48 49 50
000
NZUS99 KSGF 022007
HRRSGF

HOURLY WEATHER
NATIONAL WEATHER SERVICE SPRINGFIELD MO
200 PM CST MON MAR 02 2015

......SGF CWA......

CITY           SKY/WX    TMP DP  RH WIND       PRES   REMARKS
SPRINGFIELD    CLOUDY    38  19  46 E15       30.30F WCI  29
JOPLIN         CLOUDY    36  21  54 SE8       30.30F WCI  30
WEST PLAINS    CLOUDY    38  18  44 SE7       30.35F WCI  33
ROLLA          CLOUDY    34  16  47 E12       30.35F WCI  25
OSAGE BEACH    CLOUDY    37  18  44 E8        30.37F WCI  31
BRANSON        CLOUDY    36  23  60 E13       30.33F WCI  27

......SURROUNDING SGF CWA......

CITY           SKY/WX    TMP DP  RH WIND       PRES   REMARKS
CHANUTE        CLOUDY    37  22  54 E12       30.31F WCI  29
PARSONS        CLOUDY    38  22  52 SE6       30.32F WCI  33
COFFEYVILLE    CLOUDY    37  25  61 SE9       30.31F WCI  30
EMPORIA        CLOUDY    34  19  54 SE14      30.27F WCI  25
GROVE OK       CLOUDY    39  27  60 SE3       30.32F
ROGERS AR      CLOUDY    36  25  64 SE8       30.29  WCI  30
SILOAM SPRINGS CLOUDY    37  25  60 SE6       30.31F WCI  33
HARRISON AR    CLOUDY    34  24  67 SE15      30.32F WCI  24
NEAR YELLVILLE CLOUDY    37  19  48 SE6       30.36F WCI  33

......KANSAS AND MISSOURI......

CITY           SKY/WX    TMP DP  RH WIND       PRES   REMARKS
KANSAS CTY INT CLOUDY    39  19  44 E13       30.33F WCI  31
DOWNTOWN KC    MOSUNNY   39  18  42 SE10      30.34F WCI  32
COLUMBIA       MOSUNNY   35  18  49 E12       30.37F WCI  27
SEDALIA        MOSUNNY   35  18  49 E12       30.37F WCI  27
ST JOSEPH      PTSUNNY   42  21  43 S10       30.34F
ST LOUIS       PTSUNNY   35  16  45 SE5       30.46F WCI  31
SPIRIT OF STL  MOSUNNY   36  16  44 SE10G16   30.44F WCI  28
KIRKSVILLE     PTSUNNY   32  22  66 SE9       30.40F WCI  24
WICHITA        CLOUDY    35  19  52 SE10      30.24F WCI  27
TOPEKA         MOSUNNY   39  19  44 SE15      30.32F WCI  31
OLATHE         PTSUNNY   37  20  50 E15       30.32F WCI  28

......TENNESSEE......

CITY           SKY/WX    TMP DP  RH WIND       PRES   REMARKS
MEMPHIS        CLOUDY    42  32  67 E7        30.36F
NASHVILLE      PTSUNNY   47  29  49 NE7       30.37F

......ARKANSAS.......

CITY           SKY/WX    TMP DP  RH WIND       PRES   REMARKS
FAYETTEVILLE   CLOUDY    37  31  78 SE6       30.29F WCI  32
FT SMITH       CLOUDY    39  30  70 SE12      30.33F WCI  32
LITTLE ROCK    CLOUDY    37  28  70 NE12      30.39F WCI  29

......OKLAHOMA.......

CITY           SKY/WX    TMP DP  RH WIND       PRES   REMARKS
TULSA          CLOUDY    35  30  82 SE8       30.31F WCI  29
PONCA CITY     CLOUDY    35  26  69 S10       30.27F WCI  27
MCALESTER      CLOUDY    40  35  83 CALM      30.30F HAZE
OKLAHOMA CITY  CLOUDY    36  27  69 VRB3      30.26F

......IOWA............

CITY           SKY/WX    TMP DP  RH WIND       PRES   REMARKS
DES MOINES     CLOUDY    31  15  52 SE7       30.38F WCI  24
QUAD CITIES    SUNNY     28  16  60 S7        30.44F WCI  21

......ILLINOIS........

CITY           SKY/WX    TMP DP  RH WIND       PRES   REMARKS
QUINCY         CLOUDY    33  17  51 SE5       30.43F WCI  29
CHICAGO        CLOUDY    30  11  45 CALM      30.45F



USA.gov is the U.S. government's official web portal to all federal, state and local government web resources and services.